STARLINK-4055

operational
NORAD ID: 53161 Int'l Des: 2022-083 Owner: SPXS Country: US Constellation: starlink
LEOCIRCULAR

关于 STARLINK-4055

正在加载描述...

实时位置

正在加载3D地球...

即将过境

高度历史

Altitude vs Time

uPlot chart will show altitude changes over time

两行轨道根数

1 53161U 22083AF 25251.33876485 .00002166 00000-0 15410-3 0 9999
2 53161 53.2163 262.7274 0001315 98.7764 261.3377 15.08843908173836
Epoch: Sep 8, 2025 • Age: 19 hours

当前状态

高度 540.7 km
速度 7.59 km/s
星下点 0.86°N, 136.81°W
发射日期 Jul 17, 2022
运行时间 3.1 years
类型 internet

技术详情

分类 Payload
质量 297.00 kg
干质量 275.00 kg
总质量 297.00 kg
长度 0.20 m
直径 2.80 m
跨度 9.00 m
形状 Box + pan
制造商 SPXS
平台类型 Starlink
阶段状态 In Orbit
所有者/国家 SPXS/US

大型星座

Loading constellations...